Date String (YYYY-MM-DD hh:mm:ss) UTC,Instrument flags,absolute air pressure of the measurement (hPa),sample flow rate (lpm),inlet stack bypass flow (lpm),air temperature of the measurement (°C),ambient temperature measured by the external sensor (°C),aerosol sample conditioner tube jacket temperature (°C),OPC LED temperature (°C),internal box temperature (°C),relative humidity of the measurement (%),span deviation,mass concentration of particles derived from Lorenz-Mie calculation of OPC scattering (μg/m³),mass concentration of particles derived from Lorenz-Mie calculation of OPC scattering (μg/m³),mass concentration of particles derived from Lorenz-Mie calculation of OPC scattering (μg/m³)
DateTimeUTC,F1_M11,P_M11,Q1_M11,Q2_M11,T1_M11,T2_M11,T3_M11,T4_M11,T5_M11,U1_M11,ZSPAN_M11,X0_M11,X2_M11,X1_M11
2023-06-26 20:00:00,SystemResetWarning,0830.0,5.01,000.00,030.8,025.3,000.0,038.8,031.4,32.3,0002.6,0022.85,0008.03,0006.53
2023-06-26 20:01:00,SystemResetWarning,0830.0,5.01,000.00,030.6,025.4,000.0,038.8,031.1,31.9,0002.5,0022.81,0008.10,0006.58
2023-06-26 20:02:00,SystemResetWarning,0830.0,5.00,000.00,030.5,025.8,000.0,038.8,030.9,33.3,0002.3,0023.96,0008.06,0006.58
2023-06-26 20:03:00,SystemResetWarning,0830.1,5.01,000.00,030.4,026.2,000.0,038.8,031.0,32.8,0002.3,0024.35,0008.03,0006.55
2023-06-26 20:04:00,SystemResetWarning,0830.0,4.99,000.00,030.4,026.7,000.0,038.8,031.0,33.1,0002.7,0023.37,0008.03,0006.51
2023-06-26 20:05:00,SystemResetWarning,0830.0,5.00,000.00,030.4,027.0,000.0,038.8,031.1,33.1,0002.9,0022.65,0008.00,0006.51
2023-06-26 20:06:00,SystemResetWarning,0830.0,5.00,000.00,030.4,027.4,000.0,038.8,031.2,33.4,0002.9,0020.89,0007.95,0006.51
2023-06-26 20:07:00,SystemResetWarning,0829.9,5.00,000.00,030.4,027.3,000.0,038.7,031.3,34.0,0003.0,0021.45,0008.04,0006.53
2023-06-26 20:08:00,SystemResetWarning,0829.9,4.98,000.00,030.4,025.7,000.0,038.7,031.2,33.2,0003.0,0021.46,0008.06,0006.53
2023-06-26 20:09:00,SystemResetWarning,0829.8,5.01,000.00,030.4,024.4,000.0,038.6,031.1,32.8,0003.0,0021.12,0008.06,0006.51
2023-06-26 20:10:00,SystemResetWarning,0829.8,5.01,000.00,030.3,024.4,000.0,038.5,031.0,34.1,0003.2,0021.29,0008.09,0006.48
2023-06-26 20:11:00,SystemResetWarning,0829.8,5.01,000.00,030.1,024.8,000.0,038.5,030.6,34.1,0003.5,0021.48,0007.98,0006.41
2023-06-26 20:12:00,SystemResetWarning,0829.8,4.99,000.00,030.0,025.3,000.0,038.5,030.6,34.2,0003.5,0021.80,0007.93,0006.36
2023-06-26 20:13:00,SystemResetWarning,0829.7,4.98,000.00,030.0,025.8,000.0,038.5,030.7,34.8,0003.3,0021.20,0007.95,0006.32
2023-06-26 20:14:00,SystemResetWarning,0829.7,5.02,000.00,030.0,026.3,000.0,038.5,030.8,35.7,0003.2,0020.32,0007.93,0006.33
2023-06-26 20:15:00,SystemResetWarning,0829.7,5.01,000.00,030.2,026.7,000.0,038.4,031.1,34.8,0003.0,0019.77,0007.83,0006.32
2023-06-26 20:16:00,SystemResetWarning,0829.7,4.99,000.00,030.5,027.1,000.0,038.4,031.2,33.9,0002.8,0019.95,0007.83,0006.30
2023-06-26 20:17:00,SystemResetWarning,0829.7,4.99,000.00,030.6,027.4,000.0,038.5,031.3,33.9,0002.5,0020.77,0007.85,0006.29
2023-06-26 20:18:00,SystemResetWarning,0829.7,5.00,000.00,030.7,027.6,000.0,038.5,031.3,33.2,0002.5,0020.53,0007.74,0006.28
2023-06-26 20:19:00,SystemResetWarning,0829.8,5.00,000.00,030.8,027.2,000.0,038.6,031.4,33.0,0003.0,0019.65,0007.69,0006.26
2023-06-26 20:20:00,SystemResetWarning,0829.8,5.00,000.00,030.8,025.4,000.0,038.5,031.2,32.7,0003.1,0019.39,0007.67,0006.23
2023-06-26 20:21:00,SystemResetWarning,0829.8,5.00,000.00,030.8,024.5,000.0,038.5,031.3,31.6,0003.1,0019.27,0007.62,0006.20
2023-06-26 20:22:00,SystemResetWarning,0829.8,5.01,000.00,030.7,024.6,000.0,038.5,031.0,32.0,0002.9,0019.19,0007.59,0006.19
2023-06-26 20:23:00,SystemResetWarning,0829.8,5.01,000.00,030.6,025.0,000.0,038.5,030.7,32.4,0002.7,0019.23,0007.57,0006.18
2023-06-26 20:24:00,SystemResetWarning,0829.8,5.00,000.00,030.5,025.5,000.0,038.6,030.8,32.1,0003.0,0018.87,0007.53,0006.19
2023-06-26 20:25:00,SystemResetWarning,0829.8,4.99,000.00,030.4,026.0,000.0,038.6,030.8,32.3,0003.2,0018.36,0007.48,0006.19
2023-06-26 20:26:00,SystemResetWarning,0829.8,5.00,000.00,030.4,026.5,000.0,038.6,030.9,32.2,0003.1,0019.91,0007.52,0006.19
2023-06-26 20:27:00,SystemResetWarning,0829.7,5.00,000.00,030.4,026.9,000.0,038.6,031.0,32.3,0003.2,0020.35,0007.56,0006.21
2023-06-26 20:28:00,SystemResetWarning,0829.7,5.00,000.00,030.4,027.2,000.0,038.6,031.1,32.3,0003.5,0020.71,0007.52,0006.19
2023-06-26 20:29:00,SystemResetWarning,0829.7,5.00,000.00,030.4,027.5,000.0,038.6,031.2,32.8,0003.6,0020.03,0007.55,0006.18
2023-06-26 20:30:00,SystemResetWarning,0829.7,4.99,000.00,030.4,027.7,000.0,038.6,031.3,33.1,0003.3,0020.72,0007.54,0006.16
2023-06-26 20:31:00,SystemResetWarning,0829.7,4.99,000.00,030.4,027.6,000.0,038.6,031.3,31.6,0003.4,0021.45,0007.55,0006.16
2023-06-26 20:32:00,SystemResetWarning,0829.7,5.00,000.00,030.4,026.0,000.0,038.6,031.2,31.4,0003.2,0021.71,0007.57,0006.17
2023-06-26 20:33:00,SystemResetWarning,0829.7,5.01,000.00,030.4,024.7,000.0,038.5,031.2,31.7,0003.1,0022.12,0007.62,0006.18
2023-06-26 20:34:00,SystemResetWarning,0829.7,5.02,000.00,030.4,024.6,000.0,038.5,031.1,32.0,0003.3,0021.33,0007.64,0006.18
2023-06-26 20:35:00,SystemResetWarning,0829.6,4.98,000.00,030.2,025.0,000.0,038.5,030.7,34.3,0003.3,0021.22,0007.64,0006.15
2023-06-26 20:36:00,SystemResetWarning,0829.7,5.01,000.00,030.1,025.4,000.0,038.5,030.7,33.2,0003.2,0021.53,0007.69,0006.12
2023-06-26 20:37:00,SystemResetWarning,0829.7,5.00,000.00,030.1,025.9,000.0,038.4,030.9,32.8,0003.1,0022.08,0007.72,0006.12
2023-06-26 20:38:00,SystemResetWarning,0829.7,4.99,000.00,030.1,026.4,000.0,038.4,030.9,31.5,0003.2,0021.88,0007.66,0006.08
2023-06-26 20:39:00,SystemResetWarning,0829.7,5.00,000.00,030.1,026.8,000.0,038.4,031.0,31.7,0003.0,0022.02,0007.62,0006.05
2023-06-26 20:40:00,SystemResetWarning,0829.7,5.01,000.00,030.2,027.2,000.0,038.5,031.1,32.1,0003.2,0022.46,0007.62,0006.04
2023-06-26 20:41:00,SystemResetWarning,0829.7,5.02,000.00,030.2,027.5,000.0,038.5,031.1,32.0,0003.3,0022.43,0007.64,0006.03
2023-06-26 20:42:00,SystemResetWarning,0829.7,5.00,000.00,030.2,027.7,000.0,038.5,031.2,33.0,0002.8,0021.60,0007.68,0006.03
2023-06-26 20:43:00,SystemResetWarning,0829.6,4.99,000.00,030.2,027.3,000.0,038.5,031.3,32.5,0002.7,0021.43,0007.69,0006.03
2023-06-26 20:44:00,SystemResetWarning,0829.6,4.99,000.00,030.2,025.4,000.0,038.4,031.3,32.2,0002.4,0022.12,0007.66,0006.03
2023-06-26 20:45:00,SystemResetWarning,0829.6,5.02,000.00,030.2,024.6,000.0,038.4,031.2,32.8,0002.3,0022.63,0007.60,0006.01
2023-06-26 20:46:00,SystemResetWarning,0829.5,5.00,000.00,030.1,024.6,000.0,038.3,030.9,33.4,0002.3,0022.62,0007.57,0006.02
2023-06-26 20:47:00,SystemResetWarning,0829.5,5.00,000.00,029.9,025.0,000.0,038.3,030.6,33.9,0002.3,0022.31,0007.58,0006.05
2023-06-26 20:48:00,SystemResetWarning,0829.5,4.99,000.00,029.9,025.6,000.0,038.3,030.7,35.4,0002.7,0021.11,0007.55,0006.06
2023-06-26 20:49:00,SystemResetWarning,0829.5,5.03,000.00,030.0,026.1,000.0,038.3,030.9,34.9,0002.9,0019.94,0007.60,0006.10
2023-06-26 20:50:00,SystemResetWarning,0829.5,4.97,000.00,030.2,026.5,000.0,038.3,031.1,34.5,0003.0,0019.93,0007.74,0006.16
2023-06-26 20:51:00,SystemResetWarning,0829.5,5.00,000.00,030.4,026.9,000.0,038.3,031.2,34.9,0002.9,0019.65,0007.78,0006.19
2023-06-26 20:52:00,SystemResetWarning,0829.5,5.03,000.00,030.6,027.3,000.0,038.4,031.3,35.1,0002.7,0020.57,0007.81,0006.22
2023-06-26 20:53:00,SystemResetWarning,0829.5,4.97,000.00,030.8,027.6,000.0,038.4,031.4,33.1,0002.8,0020.92,0007.78,0006.23
2023-06-26 20:54:00,SystemResetWarning,0829.5,5.01,000.00,031.0,027.8,000.0,038.5,031.5,32.4,0002.8,0021.86,0007.72,0006.25
2023-06-26 20:55:00,SystemResetWarning,0829.5,4.99,000.00,031.1,026.8,000.0,038.5,031.5,32.4,0003.1,0021.11,0007.79,0006.31
2023-06-26 20:56:00,SystemResetWarning,0829.5,5.00,000.00,031.1,025.1,000.0,038.5,031.3,32.8,0003.3,0021.13,0007.88,0006.37
2023-06-26 20:57:00,SystemResetWarning,0829.5,5.01,000.00,031.2,024.6,000.0,038.6,031.3,32.1,0003.3,0021.76,0008.00,0006.44
2023-06-26 20:58:00,SystemResetWarning,0829.5,5.01,000.00,031.0,024.8,000.0,038.6,030.9,31.6,0003.4,0022.98,0008.04,0006.46
2023-06-26 20:59:00,SystemResetWarning,0829.5,5.00,000.00,030.9,025.3,000.0,038.7,030.8,31.8,0003.2,0024.27,0008.08,0006.47
